Regional Weather Roundup
Issued by NWS

Home | Current Version | Previous Version | Text Only | Print | Product List | Glossary Off
Versions: 1 2 3 4 5 6 7 8 9 10 11 12 13 14 15 16 17 18 19 20 21 22 23 24 25 26 27 28

000
ASUS45 KTFX 292010
RWRMT
MONTANA REGIONAL WEATHER ROUNDUP
NATIONAL WEATHER SERVICE GREAT FALLS MT
200 PM MDT FRI APR 29 2016

NOTE: "FAIR" INDICATES FEW OR NO CLOUDS BELOW 12000 FEET WITH NO
SIGNIFICANT WEATHER AND/OR OBSTRUCTIONS TO VISIBILITY.

MTZ001>007-043-292100-
WEST OF THE DIVIDE

CITY           SKY/WX    TMP DP  RH WIND       PRES   REMARKS
KALISPELL      CLOUDY    49  32  52 CALM      29.92S
MISSOULA       CLOUDY    51  31  46 SW7       29.90F
BUTTE          CLOUDY    45  27  49 VRB3      29.87F
MULLAN PASS    MIX PCPN  34  27  75 CALM      29.90S
ANACONDA         N/A     46  28  49 NE5       29.87F
DEER LODGE       N/A     48  30  49 CALM      29.89F
EUREKA           N/A     52  32  46 S6        29.93S
HAMILTON         N/A     46  32  57 W5        29.90F
LIBBY            N/A     48  36  61 CALM      29.94S
PLAINS           N/A     53  32  45 CALM      29.93F
$$

MTZ008-052>055-292100-
SOUTHWEST MONTANA

CITY           SKY/WX    TMP DP  RH WIND       PRES   REMARKS
BOZEMAN        SUNNY     52  34  50 VRB5      29.88F
DILLON         MOSUNNY   49  29  46 NE5       29.85F
ENNIS          CLOUDY    46  30  53 VRB7      29.91S
TWIN BRIDGES     N/A     52  27  38 NW3       29.87
$$

MTZ009-010-012-014-046-048-049-054-292100-
EAST SLOPES AND CENTRAL MONTANA

CITY           SKY/WX    TMP DP  RH WIND       PRES   REMARKS
CUT BANK       CLOUDY    46  33  60 SE12      29.95F
GREAT FALLS    CLOUDY    50  30  46 NE6       29.93F
MALMSTROM AFB  CLOUDY    50  32  49 NE7G14    29.94F
HELENA         CLOUDY    52  28  39 CALM      29.90F
CHOTEAU          N/A     46  30  53 VRB3      29.95S
CONRAD           N/A     49  41  74 E7        29.98S
$$

MTZ011-013-016-021-045-047-050-051-292100-
NORTH CENTRAL MONTANA

CITY           SKY/WX    TMP DP  RH WIND       PRES   REMARKS
HAVRE          MOSUNNY   55  35  47 E14G23    29.99F
N BAR RANCH    CLOUDY    43  32  65 SE8       30.00F
CHINOOK          N/A     54  36  50 E16       30.02F
$$

MTZ017>020-022>027-061-062-292100-
NORTHEAST MONTANA

CITY           SKY/WX    TMP DP  RH WIND       PRES   REMARKS
GLASGOW        CLOUDY    56  30  37 E16G24    30.06F
JORDAN           N/A     51  36  56 E15G23    30.04F
SIDNEY         MOSUNNY   59  30  33 SE12      30.10F
WOLF POINT     CLOUDY    58  29  33 E15       30.09F
PLENTYWOOD       N/A     55  25  30 SE15G23   30.10F
POPLAR           N/A     55  28  35 SE14      30.10S
SCOBEY           N/A     58  24  27 SE9       30.07F
$$

MTZ028>42-056>058-292100-
SOUTHCENTRAL AND SOUTHEAST MONTANA

CITY           SKY/WX    TMP DP  RH WIND       PRES   REMARKS
BAKER          PTSUNNY   53  32  44 SE17      30.08F
BILLINGS       CLOUDY    48  32  53 E10       29.97F
LIVINGSTON     CLOUDY    45  30  55 NE16      29.93F
MILES CITY     CLOUDY    52  34  50 SE7       30.03F
EKALAKA          N/A     45  34  65 E13       30.04F
FORSYTH          N/A     52  34  50 E12       30.01S
LAUREL           N/A     48  30  50 NE6       29.96F
ROUNDUP          N/A     48  32  54 E5        29.91S
$$

REGIONAL REPORTS...DAKOTAS

CITY           SKY/WX    TMP DP  RH WIND       PRES   REMARKS
WILLISTON      CLOUDY    57  28  33 SE13      30.13S
MINOT          SUNNY     64  19  17 E8        30.13F
DICKINSON      CLOUDY    55  29  36 SE13G21   30.08F
BEACH          PTSUNNY   52  28  40 E15G21    30.11F
CROSBY           N/A     59  25  27 E15G22    30.15F
WATFORD CITY     N/A     57  27  30 SE14      30.11F
BISMARCK       MOSUNNY   60  34  37 SE14      30.12R
GRAND FORKS    MOSUNNY   63  32  31 NE14G23   30.14F
FARGO          SUNNY     63  31  30 E7G24     30.11R
BUFFALO SD       N/A     49  32  52 E10       30.02S
RAPID CITY     CLOUDY    44  33  65 E12       30.08S
$$

REGIONAL REPORTS...WYOMING/IDAHO/WASHINGTON

CITY           SKY/WX    TMP DP  RH WIND       PRES   REMARKS
GILLETTE       CLOUDY    46  33  60 NE8       29.99F
SHERIDAN       CLOUDY    46  33  60 E7        29.98S
BUFFALO WY       N/A    N/A N/A N/A MISG      29.98S
CODY           CLOUDY    45  28  53 CALM      29.92F
YELLOWSTONE LA   N/A     39  19  44 CALM      29.89F
IDAHO FALLS    CLOUDY    50  34  54 VRB6      29.87F
SALMON         CLOUDY    48  34  57 CALM      29.85F
BOISE          MOSUNNY   61  38  42 NW13G22   29.87F
SPOKANE        LGT RAIN  50  40  68 SE3       29.95S
$$

REGIONAL REPORTS...ALBERTA

CITY           SKY/WX    TMP DP  RH WIND       PRES   REMARKS
EDMONTON       MOSUNNY   61  32  33 S22G28    29.95S
CALGARY        CLOUDY    50  30  46 S21G26    29.95S
LETHBRIDGE     CLOUDY    46  36  66 SE5       29.96F
MEDICINE HAT   CLOUDY    52  32  46 SE14G20   30.01F
MILK RIVER       N/A     48  32  53 S14         N/A
$$

REGIONAL REPORTS...SASKATCHEWAN

CITY           SKY/WX    TMP DP  RH WIND       PRES   REMARKS
SWIFT CURRENT  PTSUNNY   59  23  25 S23G29    30.06F
REGINA         MOSUNNY   61  12  15 SE17G26   30.14F
SASKATOON      SUNNY     63  18  17 SE17G25   30.14F
CYPRESS HILLS    N/A     43  32  65 SE17G26     N/A
VAL MARIE        N/A     54  28  37 SE15        N/A
ROCKGLEN         N/A     55  25  30 SE15G23     N/A
$$




USA.gov is the U.S. government's official web portal to all federal, state and local government web resources and services.